Regional Weather Roundup
Issued by NWS

Home | Current Version | Previous Version | Graphics & Text | Print | Product List | Glossary On
Versions: 1 2 3 4 5 6 7 8 9 10 11 12 13 14 15 16 17 18 19 20 21 22 23 24 25 26 27 28 29 30 31 32 33 34 35 36 37 38 39 40 41 42 43 44 45 46 47 48 49 50
000
ASUS43 KLMK 211302
RWRKY
KENTUCKY REGIONAL WEATHER ROUNDUP
NATIONAL WEATHER SERVICE LOUISVILLE KY
900 AM EDT FRI JUL 21 2017

NOTE "FAIR" INDICATES FEW OR NO CLOUDS BELOW 12,000 FEET
WITH NO SIGNIFICANT WEATHER AND/OR OBSTRUCTIONS TO VISIBILITY.

KYZ001>023-026-027-061>063-070>075-211400-
WESTERN AND SOUTH CENTRAL KENTUCKY

CITY           SKY/WX    TMP DP  RH WIND       PRES   REMARKS
PADUCAH        SUNNY     82  75  79 SW6       30.03R
HENDERSON      CLOUDY    80  76  87 S6        30.03R
OWENSBORO      SUNNY     79  76  90 S6        30.04R FOG
HOPKINSVILLE   SUNNY     81  74  80 SW5       30.07R
BOWLING GREEN  MOSUNNY   81  75  82 SW5       30.07R
GLASGOW        NOT AVBL
$$

KYZ024-025-028>034-038-045-046-053-211400-
NORTH CENTRAL KENTUCKY

CITY           SKY/WX    TMP DP  RH WIND       PRES   REMARKS
LOUISVILLE/SDF CLOUDY    84  75  74 W6        30.04R HX  92
LOUISVILLE/LOU CLOUDY    84  76  76 W6        30.04S HX  93
FORT KNOX      CLOUDY    82  74  77 S6        30.04S
$$

KYZ035>037-039>044-047>052-055>060-089>105-211400-
NORTHEAST KENTUCKY

CITY           SKY/WX    TMP DP  RH WIND       PRES   REMARKS
LEXINGTON      CLOUDY    80  72  76 SW6       30.07R HAZE
COVINGTON      LGT RAIN  73  73 100 CALM      30.07F FOG
FRANKFORT      CLOUDY    79  73  82 SW7       30.05R
$$

KYZ054-064>069-076>088-106>120-211400-
SOUTHEAST KENTUCKY

CITY           SKY/WX    TMP DP  RH WIND       PRES   REMARKS
JACKSON        CLOUDY    76  72  87 CALM      30.10R
LONDON         CLOUDY    77  72  84 CALM      30.10R
SOMERSET       CLOUDY    75  75 100 CALM      30.10S
MIDDLESBORO    CLOUDY    71  71 100 CALM      30.12R FOG
MONTICELLO     MOSUNNY   75  73  93 NW8       30.11R
$$





USA.gov is the U.S. government's official web portal to all federal, state and local government web resources and services.